Location: Elstree
(51.6403°N, 0.2969°W)
Time: 07:57:28
(UTC+00:00)

Envisat - Pass Details

Date: 07 December 2022
Orbit: 763 x 765 km, 98.2° (Epoch: 04 February)

Event Time Altitude Azimuth Distance (km) Brightness Sun altitude
Rises 16:29:36 0° 206° (SSW) 3,221 7.3 -5.7°
Reaches altitude 10° 16:32:28 10° 223° (SW) 2,301 6.9 -6.1°
Maximum altitude 16:36:12 20° 271° (W) 1,698 5.7 -6.6°
Drops below altitude 10° 16:39:58 10° 318° (NW) 2,314 5.7 -7.1°
Sets 16:42:53 0° 335° (NNW) 3,247 6.2 -7.5°
